星链-30300 (STARLINK-30300 )

导读

STARLINK-30300是美国SpaceX星链(Starlink)低轨互联网星座中的一颗卫星,于2023年8月27日发射升空。作为星链大规模组网的组成部分,它运行在近地轨道,依托星链星座架构为全球提供高速卫星互联网接入服务,支持偏远地区网络覆盖、应急通信等场景,同时也具备潜在的军事应用潜力,是星链全球部署进程中的一环。

基本信息
目录编号:
57715
目录名称:
STARLINK-30300
国际标识:
2023-129T
轨道中心:
EARTH
卫星名称:
星链-30300
卫星全名:
星链-30300 (STARLINK-30300 )
卫星状态:
在轨 (已飞行1026 天)
发射日期:
2023-08-27 UTC
国别 :
美国 (US)
星等 :
--
轨道信息
数据来源 国际轨道数据
星历时间: 2026-06-17T08:31:42+0800
1天前
查看轨道信息
半长轴: 6861.192km
偏心率: 0.0001223
轨道倾角: 43.002°
近地点辐角 283.708°
升交点赤经 276.978°
平近点角 76.363°
近地点: 482.215km
远地点: 483.895km
周期: 94.267分钟
每日圈数: 15.275781
详细信息
固有亮度:
5
最大亮度:
0.3
卫星平台:
Starlink v2.0 mini
覆盖范围:
全球
运营商:
太空探索技术公司
运营商所在国:
美国
制造商(研发单位):
太空探索技术公司
制造商所在国:
美国
使用方式:
暂无
卫星简介
星链(Starlink)计划是由太空探索技术公司(SpaceX)提出的一个巨型低轨卫星互联网星座项目,计划在2019年至2024年间在太空搭建由约1.2万颗卫星组成的“星链”网络,其中1584颗将部署在地球上空550千米处的近地轨道,并从2020年开始工作。该卫星仍在工作。
2D轨道图
3D轨道图
轨道高度分析图
轨道倾角分析图
轨道综合分析图
查看轨道综合分析图